Showing default

NUSAT-49(K.VON NEUMANN), 60500

Orbit data source: Space-Track

NUSAT-49(K.VON NEUMANN), 60500 is a payload satellite owned by URUGUS S.A. (AR) in SSO that was launched on Fri, 16 Aug 2024 UTC via an FALCON 9 launch vehicle from the Air Force Western Test Range (AFWTR). Payload-class satellites include a variety of spacecraft equipped with specific instruments for various scientific and technological missions. These include communications satellites like Starlink; space stations such as the ISS; scientific satellites like the Hubble; Earth observation satellites from companies like Planet Labs, Umbra, and HawkEye 360; GPS; miniature CubeSats for education and research; and military/defense satellites.

Loading next visibility...
Identifier
60500, 2024-149AJ
Orbit
SSO
Last TLE update
20 hours ago
Origin
Manufacturer
URUGUS S.A.
Mission
Operational Commercial Imaging
Bus & Motor
NEWSAT V, Unknown motor
Mass
41.5 kg wet, 38.5 kg dry
Launch date (UTC)
2024-08-16 (8 months ago)
Launch vehicle
FALCON 9
Launch site
Air Force Western Test Range (AFWTR)
Object type
Payload
Rocket body
Debris
Shape & HBR
Box, 0.813 m
Radar Cross Section
0.542 m², Medium (>0.1 m² and < 1m²)

Expand to show TLE details & history

TLE from 20 hours ago
0 NUSAT-49(K.VON NEUMANN)
1 60500U 24149AJ  25109.17059623  .00015037  00000-0  57708-3 0  9997
2 60500  97.4101 187.7991 0003391   0.6345 359.4897 15.26564410 37325
Epoch: 2025-04-19T04:05Z
Definitive object data (Epoch: 2025-04-19T04:05:39.514Z)
Latitude
-0.00005°
Longitude
-81.13317°
Altitude
486.863 km
Speed
7.623 km/s
True Right ascension
12h 31m 11s
True Declination
0° 00' 00"
Sunlit
Object was in full shadow at TLE epoch
Visualization TLE readout
Latitude
1.16669°
Longitude
-80.4385°
Altitude
486.644 km
Speed
7.623 km/s
Apparent Right ascension
15h 12m 32s
Apparent Declination
-27° 43' 27"
Sunlit
Object is in full shadow
Visualization observer readout
Local Sidereal Time
07:25:59
Azimuth
97.356° ESE
Elevation
-37.08°
Doppler factor
1
Orbital elements
Apogee altitude
485.376 km
Perigee altitude
480.722 km
Semi-major axis
6,861.186 km
Eccentricity
0.0003391
Inclination
97.4101°
RAAN
187.7991°
Arg. of periapsis
0.6345°
True anomaly
359.48935°
Mean anomaly
359.4897°
Eccentric anomaly
359.48953°
Mean motion
3.81895 °/min
BSTAR
0.00057708
Orbital period
94.27 mins
Loading maneuver chart data...
Loading SW <> Apogee altitude chart data...
Loading historical data...
Loading historical data...
Loading historical data...
Loading historical data...
Loading historical data...
Loading historical data...
Loading historical data...

NUSAT-49(K.VON NEUMANN) Visibility forecast

Observer location: undefined°, undefined°

Span
Click to sort rows by Start time (UTC) header in descending order
Start Az.
Max El. time (UTC)
Max El. Az.
Max El.
End time (UTC)
End Az.
6 mins2025-04-20 05:23:01.524Z176.612° S2025-04-20 05:26:01.524Z227.27° WSW41.41°2025-04-20 05:29:01.524Z339.67° N
5 mins2025-04-20 18:25:01.524Z351.761° N2025-04-20 18:27:01.524Z301.73° NW34.846°2025-04-20 18:30:01.524Z216.463° SW
|